Simultaneous Nadir Overpasses (SNOs) Predictions

Prediction of SNOs between GOES-16 and TERRA Satellite Orbit:

Table of predicted SNOs for the next 14.0 days since TLE Epoch: 11/24/2018
Index Date Time (GOES-16) GOES-16 Lat,Lon TERRA Lat,Lon Distance(km) Time Diff (sec)
1 11/25/2018 03:27:25 0.01, -75.19 0.12, -74.61 65.21 80
2 11/27/2018 03:15:12 0.01, -75.18 0.78, -71.65 402.33 80
3 11/27/2018 15:36:27 -0.01, -75.19 0.33, -76.80 182.80 80
4 11/29/2018 15:26:53 -0.00, -75.20 -0.27, -73.83 155.05 80
5 11/30/2018 03:48:17 0.00, -75.19 -0.80, -79.02 435.53 80
6 12/01/2018 15:14:40 -0.00, -75.21 -0.93, -70.87 493.62 80
7 12/02/2018 03:36:03 0.00, -75.20 -0.21, -76.05 96.79 80
8 12/04/2018 03:21:10 -0.00, -75.22 0.45, -73.09 242.79 80
9 12/04/2018 15:42:25 0.00, -75.24 0.65, -78.24 341.87 80
10 12/06/2018 15:30:12 0.01, -75.26 -0.01, -75.28 3.35 80




NCC Satellite Simultaneous Nadir Overpasses (SNOs) Prediction Service
